Kuchera_Ratio
0.0 0.0 0.0 0.0 0.0 0.0 0.0 0.0 0.0 0.0 0.0 0.0 0.0 0.0 0.0 0.0 0.0 0.0 0.0 0.0 0.0 0.0 0.0 0.0 0.0 0.0 0.0 0.0 0.0 0.0 0.0 0.0 0.0 0.0 0.0 0.0 0.0 0.0 0.0 0.0 0.0 0.0 0.0 0.0 0.0 0.0 0.0 0.0 0.0 0.0 0.0 0.0 0.0 0.0 0.0 0.0 0.0 0.0 0.0 0.0 0.0 0.0 0.0 0.0 0.0 0.0 0.0 0.0 0.0 0.0 0.0 0.0 0.0 0.0 0.0 0.0 0.0 0.0 0.0 0.0 0.0 0.0 0.0 0.0 0.0 0.0 0.0 0.0
0.0 0.0 0.0 0.0 0.0 0.0 0.0 0.0 0.0 0.0 0.0 0.0 0.0 0.0 0.0 0.0 0.0 0.0 0.0 0.0 0.0 0.0 0.0 0.0 0.0 0.0 0.0 0.0 0.0 0.0 0.0 0.0 0.0 0.0 0.0 0.0 0.0 0.0 0.0 0.0 0.0 0.0 0.0 0.0 0.0 0.0 0.0 0.0 0.0 0.0 0.0 0.0 0.0 0.0 0.0 0.0 0.0 0.0 0.0 0.0 0.0 0.0 0.0 0.0 0.0 0.0 0.0 0.0 0.0 0.0 0.0 0.0 0.0 0.0 0.0 0.0 0.0 0.0 0.0 0.0 0.0 0.0 0.0 0.0 0.0 0.0 0.0 0.0
0.0 0.0 0.0 0.0 0.0 0.0 0.0 0.0 0.0 0.0 0.0 0.0 0.0 0.0 0.0 0.0 0.0 0.0 0.0 0.0 0.0 0.0 0.0 0.0 0.0 0.0 0.0 0.0 0.0 0.0 0.0 0.0 0.0 0.0 0.0 0.0 0.0 0.0 0.0 0.0 0.0 0.0 0.0 0.0 0.0 0.0 0.0 0.0 0.0 0.0 0.0 0.0 0.0 0.0 0.0 0.0 0.0 0.0 0.0 0.0 0.0 0.0 0.0 0.0 0.0 0.0 0.0 0.0 0.0 0.0 0.0 0.0 0.0 0.0 0.0 0.0 0.0 0.0 0.0 0.0 0.0 0.0 0.0 0.0 0.0 0.0 0.0 0.0
0.0 0.0 0.0 0.0 0.0 0.0 0.0 0.0 0.0 0.0 0.0 0.0 0.0 0.0 0.0 0.0 0.0 0.0 0.0 0.0 0.0 0.0 0.0 0.0 0.0 0.0 0.0 0.0 0.0 0.0 0.0 0.0 0.0 0.0 0.0 0.0 0.0 0.0 0.0 0.0 0.0 0.0 0.0 0.0 0.0 0.0 0.0 0.0 0.0 0.0 0.0 0.0 0.0 0.0 0.0 0.0 0.0 0.0 0.0 0.0 0.0 0.0 0.0 0.0 0.0 0.0 0.0 0.0 0.0 0.0 0.0 0.0 0.0 0.0 0.0 0.0 0.0 0.0 0.0 0.0 0.0 0.0 0.0 0.0 0.0 0.0 0.0 0.0
0.0 0.0 0.0 0.0 0.0 0.0 0.0 0.0 0.0 0.0 0.0 0.0 0.0 0.0 0.0 0.0 0.0 0.0 0.0 0.0 0.0 0.0 0.0 0.0 0.0 0.0 0.0 0.0 0.0 0.0 0.0 0.0 0.0 0.0 0.0 0.0 0.0 0.0 0.0 0.0 0.0 0.0 0.0 0.0 0.0 0.0 0.0 0.0 0.0 0.0 0.0 0.0 0.0 0.0 0.0 0.0 0.0 0.0 0.0 0.0 0.0 0.0 0.0 0.0 0.0 0.0 0.0 0.0 0.0 0.0 0.0 0.0 0.0 0.0 0.0 0.0 0.0 0.0 0.0 0.0 0.0 0.0 0.0 0.0 0.0 0.0 0.0 0.0
0.0 0.0 0.0 0.0 0.0 0.0 0.0 0.0 0.0 0.0 0.0 0.0 0.0 0.0 0.0 0.0 0.0 0.0 0.0 0.0 0.0 0.0 0.0 0.0 0.0 0.0 0.0 0.0 0.0 0.0 0.0 0.0 0.0 0.0 0.0 0.0 0.0 0.0 0.0 0.0 0.0 0.0 0.0 0.0 0.0 0.0 0.0 0.0 0.0 0.0 0.0 0.0 0.0 0.0 0.0 0.0 0.0 0.0 0.0 0.0 0.0 0.0 0.0 0.0 0.0 0.0 0.0 0.0 0.0 0.0 0.0 0.0 0.0 0.0 0.0 0.0 0.0 0.0 0.0 0.0 0.0 0.0 0.0 0.0 0.0 0.0 0.0 0.0
0.0 0.0 0.0 0.0 0.0 0.0 0.0 0.0 0.0 0.0 0.0 0.0 0.0 0.0 0.0 0.0 0.0 0.0 0.0 0.0 0.0 0.0 0.0 0.0 0.0 0.0 0.0 0.0 0.0 0.0 0.0 0.0 0.0 0.0 0.0 0.0 0.0 0.0 0.0 0.0 0.0 0.0 0.0 0.0 0.0 0.0 0.0 0.0 0.0 0.0 0.0 0.0 0.0 0.0 0.0 0.0 0.0 0.0 0.0 0.0 0.0 0.0 0.0 0.0 0.0 0.0 0.0 0.0 0.0 0.0 0.0 0.0 0.0 0.0 0.0 0.0 0.0 0.0 0.0 0.0 0.0 0.0 0.0 0.0 0.0 0.0 0.0 0.0
0.0 0.0 0.0 0.0 0.0 0.0 0.0 0.0 0.0 0.0 0.0 0.0 0.0 0.0 0.0 0.0 0.0 0.0 0.0 0.0 0.0 0.0 0.0 0.0 0.0 0.0 0.0 0.0 0.0 0.0 0.0 0.0 0.0 0.0 0.0 0.0 0.0 0.0 0.0 0.0 0.0 0.0 0.0 0.0 0.0 0.0 0.0 0.0 0.0 0.0 0.0 0.0 0.0 0.0 0.0 0.0 0.0 0.0 0.0 0.0 0.0 0.0 0.0 0.0 0.0 0.0 0.0 0.0 0.0 0.0 0.0 0.0 0.0 0.0 0.0 0.0 0.0 0.0 0.0 0.0 0.0 0.0 0.0 0.0 0.0 0.0 0.0 0.0
0.0 0.0 0.0 0.0 0.0 0.0 0.0 0.0 0.0 0.0 0.0 0.0 0.0 0.0 0.0 0.0 0.0 0.0 0.0 0.0 0.0 0.0 0.0 0.0 0.0 0.0 0.0 0.0 0.0 0.0 0.0 0.0 0.0 0.0 0.0 0.0 0.0 0.0 0.0 0.0 0.0 0.0 0.0 0.0 0.0 0.0 0.0 0.0 0.0 0.0 0.0 0.0 0.0 0.0 0.0 0.0 0.0 0.0 0.0 0.0 0.0 0.0 0.0 0.0 0.0 0.0 0.0 0.0 0.0 0.0 0.0 0.0 0.0 0.0 0.0 0.0 0.0 0.0 0.0 0.0 0.0 0.0 0.0 0.0 0.0 0.0 0.0 0.0
0.0 0.0 0.0 0.0 0.0 0.0 0.0 0.0 0.0 0.0 0.0 0.0 0.0 0.0 0.0 0.0 0.0 0.0 0.0 0.0 0.0 0.0 0.0 0.0 0.0 0.0 0.0 0.0 0.0 0.0 0.0 0.0 0.0 0.0 0.0 0.0 0.0 0.0 0.0 0.0 0.0 0.0 0.0 0.0 0.0 0.0 0.0 0.0 0.0 0.0 0.0 0.0 0.0 0.0 0.0 0.0 0.0 0.0 0.0 0.0 0.0 0.0 0.0 0.0 0.0 0.0 0.0 0.0 0.0 0.0 0.0 0.0 0.0 0.0 0.0 0.0 0.0 0.0 0.0 0.0 0.0 0.0 0.0 0.0 0.0 0.0 0.0 0.0
0.0 0.0 0.0 0.0 0.0 0.0 0.0 0.0 0.0 0.0 0.0 0.0 0.0 0.0 0.0 0.0 0.0 0.0 0.0 0.0 0.0 0.0 0.0 0.0 0.0 0.0 0.0 0.0 0.0 0.0 0.0 0.0 0.0 0.0 0.0 0.0 0.0 0.0 0.0 0.0 0.0 0.0 0.0 0.0 0.0 0.0 0.0 0.0 0.0 0.0 0.0 0.0 0.0 0.0 0.0 0.0 0.0 0.0 0.0 0.0 0.0 0.0 0.0 0.0 0.0 0.0 0.0 0.0 0.0 0.0 0.0 0.0 0.0 0.0 0.0 0.0 0.0 0.0 0.0 0.0 0.0 0.0 0.0 0.0 0.0 0.0 0.0 0.0
0.0 0.0 0.0 0.0 0.0 0.0 0.0 0.0 0.0 0.0 0.0 0.0 0.0 0.0 0.0 0.0 0.0 0.0 0.0 0.0 0.0 0.0 0.0 0.0 0.0 0.0 0.0 0.0 0.0 0.0 0.0 0.0 0.0 0.0 0.0 0.0 0.0 0.0 0.0 0.0 0.0 0.0 0.0 0.0 0.0 0.0 0.0 0.0 0.0 0.0 0.0 0.0 0.0 0.0 0.0 0.0 0.0 0.0 0.0 0.0 0.0 0.0 0.0 0.0 0.0 0.0 0.0 0.0 0.0 0.0 0.0 0.0 0.0 0.0 0.0 0.0 0.0 0.0 0.0 0.0 0.0 0.0 0.0 0.0 0.0 0.0 0.0 0.0
0.0 0.0 0.0 0.0 0.0 0.0 0.0 0.0 0.0 0.0 0.0 0.0 0.0 0.0 0.0 0.0 0.0 0.0 0.0 0.0 0.0 0.0 0.0 0.0 0.0 0.0 0.0 0.0 0.0 0.0 0.0 0.0 0.0 0.0 0.0 0.0 0.0 0.0 0.0 0.0 0.0 0.0 0.0 0.0 0.0 0.0 0.0 0.0 0.0 0.0 0.0 0.0 0.0 0.0 0.0 0.0 0.0 0.0 0.0 0.0 0.0 0.0 0.0 0.0 0.0 0.0 0.0 0.0 0.0 0.0 4.6 0.0 0.0 0.0 0.0 0.0 0.0 0.0 0.0 0.0 0.0 0.0 0.0 0.0 0.0 0.0 0.0 0.0
0.0 0.0 0.0 0.0 0.0 0.0 0.0 0.0 0.0 0.0 0.0 0.0 0.0 0.0 0.0 0.0 0.0 0.0 0.0 0.0 0.0 0.0 0.0 0.0 0.0 0.0 0.0 0.0 0.0 0.0 0.0 0.0 0.0 0.0 0.0 0.0 0.0 0.0 0.0 0.0 0.0 0.0 0.0 0.0 0.0 0.0 0.0 0.0 0.0 0.0 0.0 0.0 0.0 0.0 0.0 0.0 0.0 0.0 0.0 0.0 1.2 4.4 1.8 0.0 0.0 0.0 0.0 0.0 0.0 0.0 2.9 0.0 0.0 0.0 0.0 0.0 0.0 0.0 0.0 0.0 0.0 0.0 0.0 0.0 0.0 0.0 0.0 0.0
0.0 0.0 0.0 0.0 0.0 0.0 0.0 0.0 0.0 0.0 0.0 0.0 0.0 0.0 0.0 0.0 0.0 0.0 0.0 0.0 0.0 0.0 0.0 0.0 0.0 0.0 0.0 0.0 0.0 0.0 0.0 0.0 0.0 0.0 0.0 0.0 0.0 0.0 0.0 0.0 0.0 0.0 0.0 0.0 0.0 0.0 0.0 0.0 0.0 0.0 0.0 0.0 0.0 0.0 0.0 0.0 0.0 0.0 1.6 6.8 1.6 3.6 0.0 0.0 0.0 0.0 0.0 0.0 0.0 0.0 3.2 0.0 0.0 0.0 0.0 0.0 0.0 0.0 0.0 0.0 0.0 0.0 0.0 0.0 0.0 0.0 0.0 0.1
0.0 0.0 0.0 0.0 0.0 0.0 0.0 0.0 0.0 0.0 0.0 0.0 0.0 0.0 0.0 0.0 0.0 0.0 0.0 0.0 0.0 0.0 0.0 0.0 0.0 0.0 0.0 0.0 0.0 0.0 0.0 0.0 0.0 0.0 0.0 0.0 0.0 0.0 0.0 0.0 0.0 0.0 0.0 0.0 0.0 0.0 0.0 0.0 0.0 0.0 0.0 0.0 0.0 0.0 0.7 0.6 0.4 0.0 0.9 4.9 5.5 3.4 0.0 0.0 0.0 0.0 0.0 0.0 0.0 0.0 2.3 0.0 1.1 0.0 0.0 0.0 0.0 0.0 0.0 0.0 0.0 0.0 0.0 0.0 0.0 0.0 0.2 1.7
0.0 0.0 0.0 0.0 0.0 0.0 0.0 0.0 0.0 0.0 0.0 0.0 0.0 0.0 0.0 0.0 0.0 0.0 0.0 0.0 0.0 0.0 0.0 0.0 0.0 0.0 0.0 0.0 0.0 0.0 0.0 0.0 0.0 0.0 0.0 0.0 0.0 0.0 0.0 0.0 0.0 0.0 0.0 0.0 0.0 0.0 0.0 0.0 0.0 0.0 0.0 0.0 0.0 0.0 6.8 8.2 8.1 5.1 0.3 5.3 0.8 2.9 0.8 4.1 0.0 0.0 0.0 0.0 0.0 0.0 0.0 0.0 0.0 0.0 0.0 0.0 0.0 0.0 0.0 0.0 0.0 0.0 0.0 0.0 0.0 1.0 2.5 3.4
0.0 0.0 0.0 0.0 0.0 0.0 0.0 0.0 0.0 0.0 0.0 0.0 0.0 0.0 0.0 0.0 0.0 0.0 0.0 0.0 0.0 0.0 0.0 0.0 0.0 0.0 0.0 0.0 0.0 0.0 0.0 0.0 0.0 0.0 0.0 0.0 0.0 0.0 0.0 0.0 0.0 0.0 0.0 0.0 0.0 0.0 0.0 0.0 0.0 0.0 0.0 0.0 0.0 1.2 8.7 12.6 6.4 5.4 5.6 7.2 4.5 0.0 0.0 0.0 4.3 0.0 0.0 0.0 0.0 0.0 0.0 0.0 0.0 0.0 0.0 0.0 0.0 0.0 0.0 0.0 0.0 0.1 0.4 0.8 1.8 2.8 3.4 4.8
0.0 0.0 0.0 0.0 0.0 0.0 0.0 0.0 0.0 0.0 0.0 0.0 0.0 0.0 0.0 0.0 0.0 0.0 0.0 0.0 0.0 0.0 0.0 0.0 0.0 3.9 7.6 0.0 0.0 0.0 0.0 0.0 0.0 0.0 0.0 0.0 0.0 0.0 0.0 0.0 0.0 0.0 0.0 0.0 0.0 0.0 0.0 0.0 0.0 2.6 6.9 3.8 1.0 0.0 2.0 0.3 0.0 0.0 0.0 2.4 2.4 6.3 2.4 0.0 0.0 0.0 0.0 0.0 0.0 0.0 0.0 0.0 0.6 0.0 0.0 0.0 0.0 0.0 0.0 0.0 1.2 2.1 2.3 3.1 3.8 4.4 5.4 6.0
0.0 0.0 0.0 0.0 0.0 0.0 0.0 0.0 0.0 0.0 0.0 0.0 0.0 0.0 0.0 0.0 0.0 0.0 0.0 0.0 0.0 0.0 0.0 0.0 0.0 0.0 0.0 0.0 0.0 0.0 0.0 0.0 0.0 0.0 0.0 0.0 0.0 0.0 0.0 0.0 0.0 0.0 0.0 0.5 0.0 0.0 0.0 5.1 7.0 7.3 2.6 0.0 0.0 0.0 0.0 0.0 0.0 0.0 0.0 2.1 3.7 2.4 0.2 1.1 0.0 0.0 0.0 0.0 0.0 0.0 0.0 0.0 1.3 0.6 0.0 0.0 0.0 0.0 1.3 3.0 4.3 4.5 5.4 5.8 6.1 6.0 6.3 6.9
0.0 0.0 0.0 0.0 0.0 0.0 0.0 0.0 0.0 0.0 0.0 0.0 0.0 0.0 0.0 0.0 0.0 3.3 0.0 0.0 0.0 0.0 0.0 0.0 0.0 0.0 0.0 0.0 0.0 0.0 0.0 0.0 0.0 0.0 0.0 0.0 0.0 0.0 0.0 0.0 0.0 2.1 0.0 0.0 0.0 0.0 0.0 6.1 4.9 0.0 0.0 0.0 0.0 0.0 0.0 0.0 0.0 0.0 4.0 6.3 7.1 3.0 8.6 0.0 0.0 0.0 0.0 0.0 3.1 0.0 0.0 0.0 2.1 1.3 0.8 0.1 2.4 4.7 4.1 5.0 6.1 6.8 6.9 7.6 7.6 8.2 7.7 6.8
0.0 0.0 0.0 0.0 0.0 0.0 0.0 0.0 0.0 0.0 0.0 0.0 0.0 0.0 0.0 0.0 0.0 0.0 0.0 2.8 0.0 0.0 0.0 0.0 0.0 0.0 0.0 0.0 0.0 0.0 0.0 0.0 0.0 0.0 0.0 0.0 0.0 0.0 0.0 0.0 0.0 2.6 0.0 0.0 0.0 3.8 7.4 7.6 0.0 0.0 0.0 0.0 0.0 0.0 0.0 0.0 0.0 0.0 5.4 6.1 6.9 7.7 2.1 0.0 0.0 0.0 0.0 0.2 6.1 0.0 0.6 3.6 4.3 3.9 3.6 4.5 6.9 8.8 7.0 6.5 7.3 8.5 9.9 9.9 10.1 9.6 9.6 9.5
0.0 0.0 0.0 0.0 0.0 0.0 0.0 0.0 0.0 0.0 0.0 0.0 0.0 0.0 0.0 0.0 0.0 0.0 0.0 0.0 0.0 0.0 0.0 0.0 0.0 0.0 0.0 0.0 0.0 0.0 0.0 0.0 0.3 0.0 0.0 0.0 0.0 0.0 0.0 0.0 0.0 0.0 0.0 0.0 5.9 10.4 11.5 3.3 0.0 0.0 0.0 0.0 0.0 0.0 0.0 0.1 1.4 5.1 6.9 6.0 8.4 2.4 5.0 11.3 4.9 0.0 0.0 0.0 6.2 4.9 7.2 9.6 6.5 7.4 7.9 6.4 8.6 9.6 8.4 8.3 9.0 8.8 10.9 12.1 12.1 11.3 11.8 12.1
0.0 0.0 0.0 0.0 0.0 0.0 0.0 0.0 0.0 0.0 0.0 0.0 0.0 0.0 0.0 0.0 0.0 0.0 0.0 0.1 4.3 0.0 0.0 0.0 0.0 0.0 0.0 0.0 0.0 0.0 0.0 0.0 0.0 0.0 0.0 0.0 0.0 0.0 0.0 0.0 0.0 0.0 3.2 0.0 1.3 5.1 4.6 1.0 0.0 0.0 0.0 0.0 0.0 0.0 0.9 4.1 7.9 4.8 4.9 6.6 6.0 5.9 5.3 5.8 8.2 3.0 3.7 1.9 3.8 4.4 10.3 11.9 12.4 12.5 12.5 10.6 8.1 9.6 9.3 9.4 9.9 9.4 9.4 9.6 10.3 11.4 11.3 12.6
0.0 0.0 0.0 0.0 0.0 0.0 0.0 0.0 0.0 0.0 0.0 0.0 0.0 0.0 0.0 0.0 0.0 0.0 0.0 0.0 0.0 2.3 0.0 0.0 0.0 0.0 0.0 0.0 0.0 0.0 0.0 0.0 0.0 0.0 0.0 0.0 0.0 0.0 0.0 0.0 0.0 6.1 2.1 0.0 0.6 4.9 2.3 0.0 0.0 0.0 0.0 0.0 0.5 6.2 3.3 3.1 9.1 7.9 2.8 1.6 2.5 3.1 6.6 7.6 5.4 6.9 10.4 12.2 5.5 6.1 13.7 13.3 12.4 12.7 12.7 12.7 12.2 11.9 9.9 12.2 12.4 12.0 11.5 11.3 12.5 12.7 12.0 11.9
0.0 0.0 0.0 0.0 0.0 0.0 0.0 0.0 0.0 0.0 0.0 0.0 0.0 0.0 0.0 0.0 0.0 0.0 0.0 5.2 12.9 3.8 0.0 5.4 0.0 0.3 0.0 0.0 0.0 0.0 0.0 4.0 0.0 0.0 0.0 0.0 0.0 0.0 0.0 1.1 0.0 8.8 3.3 1.2 2.8 2.4 2.0 0.0 0.0 2.3 2.2 3.8 1.6 3.9 0.0 0.0 8.2 9.3 7.6 1.9 1.1 1.9 5.0 7.6 8.6 7.8 14.6 14.3 7.2 1.4 13.2 15.4 13.1 13.0 12.7 12.7 12.8 12.7 12.2 12.8 12.5 12.4 12.3 12.4 12.6 12.7 12.8 13.0
0.0 0.0 0.0 0.0 0.0 0.0 0.0 0.0 0.0 0.0 0.0 0.0 0.0 0.0 0.0 0.0 0.0 0.0 0.0 8.8 14.1 4.9 6.6 0.0 0.0 0.0 0.0 0.0 0.0 0.0 12.4 10.6 0.0 0.0 0.0 0.0 0.0 0.0 2.8 2.0 0.0 0.0 0.0 0.0 7.6 12.5 3.8 1.9 5.5 4.5 5.6 7.0 7.9 7.5 3.6 4.3 8.1 10.0 5.9 3.6 3.2 3.9 5.0 7.0 6.6 8.3 9.6 4.0 5.5 5.3 7.1 13.6 13.9 13.9 13.3 13.0 13.1 12.9 12.7 12.8 12.7 12.6 12.5 12.4 12.6 12.7 12.8 12.9
0.0 0.0 0.0 0.0 0.0 0.0 0.0 0.0 0.0 0.0 0.0 0.0 0.0 0.0 0.0 0.0 0.0 0.0 7.8 18.3 19.3 2.9 7.1 2.2 0.0 0.0 0.0 0.0 0.0 0.0 3.4 0.0 6.3 0.0 0.0 0.0 0.0 0.0 0.0 6.0 5.4 3.8 1.2 4.8 15.8 11.2 6.8 9.1 8.4 8.6 7.2 8.8 10.3 8.4 4.9 1.9 6.8 8.9 5.5 2.9 5.1 5.9 7.6 7.6 7.4 9.4 9.5 11.3 14.2 10.2 8.0 14.8 14.6 14.3 13.8 13.7 13.4 13.3 13.0 12.9 12.8 12.7 12.7 12.6 12.6 12.8 12.9 13.0
0.0 0.0 0.0 0.0 0.0 0.0 0.0 0.0 0.0 0.0 0.0 0.0 0.0 0.0 0.0 0.0 0.0 0.4 9.9 19.1 13.1 10.8 0.0 4.8 0.0 0.0 0.0 0.0 0.1 0.0 0.5 0.0 8.0 0.6 0.0 0.0 0.0 0.0 6.7 4.6 3.1 2.8 0.0 4.9 12.4 10.5 6.2 8.3 6.6 5.8 9.0 12.1 9.0 7.8 5.9 2.9 8.8 4.7 2.8 1.4 1.9 4.2 7.1 7.0 10.0 10.8 11.7 13.7 16.9 13.9 10.5 15.5 14.8 14.3 14.4 14.1 13.8 13.9 13.6 13.1 12.8 12.6 12.6 12.6 12.6 12.9 13.0 13.1
0.0 0.0 0.0 0.0 0.0 0.0 0.0 0.0 0.0 0.0 0.0 0.0 0.0 0.0 0.0 0.0 0.6 12.2 15.8 22.6 11.6 15.9 2.9 0.0 0.4 9.0 1.2 5.5 7.9 4.1 8.9 5.5 4.3 0.0 0.0 0.2 0.0 0.0 0.0 0.0 3.5 9.4 9.6 4.8 9.5 9.1 10.9 0.0 0.0 7.9 12.0 8.5 8.4 5.2 4.0 5.3 3.9 0.0 2.4 6.4 7.8 7.3 9.1 9.4 9.4 11.9 13.6 17.2 15.4 12.5 12.7 13.5 18.2 15.3 15.2 15.0 14.8 13.8 14.1 13.2 12.9 12.7 12.6 12.6 12.7 13.1 13.3 13.3
0.0 0.0 0.0 0.0 0.0 0.0 0.0 0.0 0.0 0.0 0.0 0.0 0.0 0.0 0.0 0.3 10.6 14.0 21.1 16.1 12.6 12.4 4.0 7.5 12.5 1.6 10.0 12.2 14.3 9.0 11.4 7.4 7.6 5.9 10.6 2.0 7.1 4.6 7.1 6.7 5.4 12.1 12.0 9.8 12.1 10.6 10.1 6.4 9.5 8.1 2.2 4.2 3.2 8.4 0.0 1.3 1.2 4.4 10.4 11.8 11.4 12.6 9.4 12.7 13.9 12.5 17.9 19.0 14.2 13.4 12.8 9.6 18.7 16.3 16.2 15.8 15.1 14.4 14.4 13.6 13.3 13.2 12.9 12.9 13.1 13.4 13.7 13.9
0.0 0.0 0.0 0.0 0.0 0.0 0.0 0.8 0.0 0.0 0.0 0.0 0.0 0.0 2.5 13.1 9.9 15.8 15.7 4.9 17.0 14.7 14.4 15.2 11.3 12.0 12.4 11.7 15.7 14.9 16.5 13.1 7.9 12.4 13.6 13.9 15.2 15.8 15.9 17.2 17.1 17.0 16.0 14.0 13.7 9.5 13.5 14.7 10.9 8.3 3.1 5.5 10.4 11.4 9.3 8.5 8.1 10.3 12.9 12.5 16.1 17.4 16.9 20.5 16.5 20.1 19.0 19.4 15.6 13.7 11.4 14.7 14.1 16.3 16.4 16.4 16.0 15.6 14.9 14.7 14.2 13.9 13.5 13.4 13.5 14.0 14.5 14.7
0.0 0.0 0.0 0.0 0.0 0.0 0.0 0.0 0.0 0.0 0.0 0.0 0.0 0.6 9.7 13.8 20.8 15.6 15.9 15.6 16.9 14.5 15.8 8.8 14.6 14.4 14.8 15.2 17.7 16.7 12.1 17.4 10.5 12.2 11.1 12.3 15.0 15.4 13.4 15.7 17.6 17.5 17.6 16.4 15.5 14.8 16.1 13.8 14.3 13.3 8.8 6.0 8.8 13.1 12.7 14.4 13.0 12.4 13.7 14.4 17.2 19.9 20.4 22.0 19.0 17.9 17.8 15.0 15.2 15.7 9.7 14.8 16.0 17.0 16.6 17.4 16.7 15.4 15.3 15.4 15.4 15.2 14.6 14.3 14.4 14.7 15.0 15.1
0.0 0.0 0.0 0.0 0.0 0.0 0.0 0.0 0.0 0.0 0.0 0.0 2.7 6.1 12.6 16.0 16.2 16.2 16.1 16.3 16.9 10.0 11.0 12.8 13.7 15.2 16.5 16.7 17.9 16.3 16.2 14.9 14.4 14.7 10.9 14.8 14.8 18.3 16.5 14.3 15.7 18.1 17.6 17.1 18.0 18.1 18.4 18.7 17.7 15.7 16.2 6.7 11.0 12.4 13.2 14.8 13.9 12.8 10.4 14.1 15.8 17.1 19.3 21.8 18.7 20.9 19.8 18.6 15.8 13.1 15.7 18.0 15.3 18.4 17.6 16.8 16.1 16.0 15.4 15.5 15.5 15.3 15.2 14.9 14.5 14.6 14.8 15.2
0.0 0.0 0.0 0.0 0.0 0.0 0.0 0.0 0.0 0.0 0.0 0.7 4.5 10.4 15.9 16.1 16.1 16.1 16.3 16.7 14.7 10.6 12.9 11.6 14.8 14.6 17.9 17.0 16.6 15.4 15.5 18.0 14.5 15.3 16.5 16.2 19.1 19.2 19.2 18.4 15.3 16.1 18.7 18.8 18.2 18.9 18.3 19.1 16.3 12.3 12.1 7.9 13.3 9.9 7.0 13.1 13.7 12.6 12.4 10.5 15.0 17.5 13.6 20.7 17.6 18.7 19.9 18.9 17.8 17.1 17.1 17.4 18.0 17.4 16.5 15.4 16.0 16.2 15.9 15.7 15.3 15.6 14.9 15.0 15.6 15.9 15.9 15.8
0.0 0.0 0.0 0.0 0.0 0.0 0.0 0.0 0.0 0.0 0.8 4.6 11.6 13.3 15.8 16.2 16.1 16.2 16.6 12.8 12.7 13.8 14.6 13.1 15.2 16.0 16.8 18.1 15.7 17.0 12.2 16.6 15.3 15.9 19.1 19.3 19.6 20.1 18.0 17.2 17.8 16.6 19.5 19.6 19.7 19.9 18.6 20.0 15.9 12.4 8.2 14.9 12.9 8.3 11.8 11.1 19.2 13.9 12.9 16.2 16.2 14.2 16.1 18.3 16.9 15.3 16.2 18.4 21.3 13.6 17.4 18.1 17.4 18.6 16.8 16.9 16.8 17.2 16.2 15.9 15.7 15.8 15.8 16.0 16.7 16.5 16.4 16.3
0.0 0.0 0.0 0.0 0.0 0.0 0.0 0.0 0.0 0.0 0.7 4.0 10.4 15.4 16.2 16.3 14.7 13.5 12.3 13.6 13.4 13.6 14.8 18.4 18.1 17.9 18.9 19.1 17.8 16.5 17.4 14.1 16.8 15.9 20.1 18.4 20.7 20.5 20.7 18.0 14.5 16.6 16.8 18.7 19.8 19.3 20.9 20.4 17.4 14.8 15.2 13.1 8.6 8.2 7.4 8.4 12.8 15.9 17.2 14.7 10.6 12.0 14.3 16.7 21.1 17.8 19.7 21.1 19.0 15.4 17.2 18.3 19.3 23.6 18.7 18.3 18.7 17.6 17.2 16.6 16.3 16.0 16.3 17.3 17.2 17.1 16.8 16.7
0.0 0.0 0.0 0.0 0.0 0.0 0.0 0.0 0.0 0.0 4.2 7.0 15.9 16.0 16.1 16.2 12.2 13.2 11.7 12.1 12.5 12.7 15.8 15.6 18.8 16.9 18.7 18.2 19.4 19.8 19.4 18.7 18.0 16.0 20.5 17.1 21.5 16.8 20.0 21.1 16.1 17.0 15.6 14.6 20.0 18.9 18.4 21.4 18.6 17.8 13.9 12.6 8.8 8.9 13.4 10.7 10.0 15.0 18.4 7.6 17.2 20.0 20.1 16.8 18.1 23.3 22.6 22.4 20.6 16.6 15.5 15.7 17.6 19.6 21.0 20.2 19.7 18.8 17.9 16.8 16.8 17.1 16.8 17.0 17.2 17.1 16.8 16.6
0.0 0.0 4.1 0.0 0.0 0.0 0.0 0.0 0.0 1.2 3.2 12.6 15.7 15.9 16.2 16.4 12.3 13.0 12.4 12.4 11.7 14.1 15.1 14.0 17.5 18.5 17.5 18.4 19.5 20.0 20.1 19.7 18.2 18.3 20.9 20.9 22.1 19.8 19.5 19.8 20.2 16.3 16.1 15.0 19.0 18.3 18.0 22.2 20.5 16.2 14.6 14.0 15.8 15.6 21.7 20.0 14.2 11.2 10.7 15.7 15.9 17.8 19.7 20.7 18.1 19.6 20.1 22.8 21.2 20.3 16.5 21.3 21.2 19.3 17.9 18.1 18.3 18.1 17.9 17.7 17.3 17.1 16.7 16.6 16.8 17.1 17.1 17.3
0.0 3.7 5.6 0.0 0.0 0.0 0.0 0.0 0.1 3.8 10.1 14.5 15.7 16.1 14.6 16.7 13.3 11.9 11.2 12.2 15.5 15.5 15.6 15.6 13.5 18.6 18.8 19.8 19.1 20.3 20.5 20.6 20.1 20.9 20.4 21.9 21.7 18.1 22.1 17.6 20.4 18.5 16.3 15.0 17.8 17.3 21.4 17.6 22.9 19.1 15.4 14.4 21.6 19.4 22.7 21.6 22.3 19.9 19.5 22.1 20.7 21.2 17.9 18.4 19.3 20.6 20.5 21.8 22.0 22.0 23.0 20.9 21.3 17.5 18.1 16.9 17.5 17.2 17.2 17.6 17.8 17.6 17.6 17.2 17.0 17.2 17.5 17.4
0.0 4.9 5.8 0.0 0.0 0.0 0.0 0.0 7.7 13.7 16.1 16.1 16.0 16.3 16.1 16.9 13.4 13.0 11.6 10.1 13.8 13.5 15.3 18.1 16.8 17.3 18.8 18.9 19.3 17.2 20.8 20.9 20.9 21.5 21.7 22.1 21.8 22.6 21.8 20.8 19.0 20.2 17.1 15.9 17.7 19.1 22.7 21.7 23.3 22.3 21.2 22.8 21.1 17.8 17.8 18.4 18.5 20.8 22.2 23.6 22.3 23.0 22.4 22.6 25.3 19.5 21.6 21.2 22.5 22.3 23.2 22.1 21.8 17.8 16.9 15.9 16.0 16.3 16.0 17.0 17.4 17.4 17.5 17.6 17.4 17.6 17.4 17.8
3.6 9.5 6.7 0.0 0.0 0.0 0.0 11.9 14.3 12.3 14.1 16.1 16.2 16.4 16.8 10.6 14.8 14.9 13.2 12.8 14.3 14.9 12.8 17.6 17.7 19.2 18.9 18.1 18.5 19.3 20.7 21.3 21.4 21.8 22.0 22.3 22.6 22.4 21.9 19.2 19.0 18.6 20.6 21.2 21.5 18.8 20.5 22.4 23.9 23.8 23.2 22.6 19.3 17.4 15.6 15.5 18.5 19.2 20.2 23.1 20.7 23.8 23.8 23.7 27.8 23.8 24.2 23.5 20.9 22.7 24.0 23.1 21.4 20.3 17.1 16.3 15.6 15.8 16.2 16.3 17.3 17.2 17.5 17.8 17.8 17.8 17.9 17.8
5.7 7.3 0.0 0.0 0.0 0.0 6.4 15.0 13.9 16.3 16.4 16.4 15.3 15.9 13.6 15.0 16.5 15.9 16.7 16.6 17.7 15.3 17.6 19.1 19.3 19.6 19.9 20.2 20.6 20.9 21.0 21.6 21.8 21.9 22.0 22.7 22.9 20.9 19.4 19.1 18.2 17.6 17.6 19.2 18.3 19.4 15.6 24.2 24.3 24.0 21.2 20.0 18.4 16.7 18.1 16.0 19.4 19.2 19.8 20.3 21.8 25.5 25.2 25.1 25.1 25.9 26.5 25.2 24.0 23.6 24.8 22.8 23.3 17.9 16.0 16.3 16.3 16.5 16.3 16.9 18.3 18.9 17.2 17.6 17.9 17.8 18.1 18.2
5.7 6.9 4.1 0.0 0.0 0.0 7.2 15.2 16.5 16.5 16.6 16.7 16.8 17.0 15.5 17.6 17.9 18.1 18.4 17.6 18.9 19.1 19.3 19.4 19.5 18.0 20.1 19.3 20.9 21.1 21.3 21.9 22.4 22.4 22.6 21.1 23.2 19.6 19.5 19.2 18.1 19.5 19.7 21.8 23.4 20.8 24.6 22.6 25.1 24.8 25.1 25.7 24.8 22.5 22.5 21.6 21.0 23.8 24.6 23.2 23.8 23.8 24.2 25.8 25.9 26.4 27.1 26.1 24.9 24.6 28.4 24.3 22.9 17.4 16.3 17.0 16.7 17.0 17.5 17.1 17.1 18.8 17.6 17.6 17.7 17.8 17.9 18.1
5.4 6.1 5.0 1.9 0.0 2.0 13.5 12.6 15.8 16.7 16.9 16.9 17.0 17.2 17.4 17.6 17.4 17.6 17.9 18.8 17.5 17.6 19.4 19.6 19.8 18.6 20.4 19.5 21.1 21.4 20.7 21.9 22.4 21.4 20.6 21.8 22.4 18.1 20.1 19.5 18.5 18.0 18.0 17.1 15.9 18.3 24.4 24.9 25.5 25.2 27.4 27.3 27.4 27.4 27.2 27.4 26.7 24.0 23.9 23.7 24.1 26.5 25.2 27.1 26.9 27.1 27.6 25.3 25.6 25.7 25.3 25.3 24.5 19.8 18.4 18.3 18.2 18.2 17.4 17.5 16.9 16.9 18.0 17.8 17.8 18.3 18.2 18.4
6.6 13.4 7.2 9.5 5.4 7.9 12.4 10.8 14.5 16.9 17.0 17.2 17.4 17.5 17.6 17.9 17.7 16.5 16.8 18.0 16.4 17.8 17.6 18.7 17.8 18.2 20.6 20.9 21.3 21.6 21.7 19.4 22.2 22.6 23.1 23.5 22.2 20.8 20.9 19.8 19.0 18.3 16.5 15.0 16.3 18.6 24.5 25.2 25.8 25.7 25.4 25.4 25.6 26.4 24.8 21.5 25.1 27.3 25.4 24.0 23.6 22.3 22.6 26.1 26.8 28.2 28.1 27.8 27.4 26.8 26.3 26.5 26.5 23.7 21.4 20.8 19.6 20.0 19.5 18.4 18.7 18.4 17.8 17.5 17.8 18.5 18.9 19.2
6.4 11.9 13.7 13.8 12.0 13.1 14.4 13.4 15.6 16.6 17.3 15.9 17.7 17.9 18.0 18.1 18.4 18.7 16.1 19.2 18.5 19.1 19.8 20.1 20.4 20.6 20.9 21.1 21.4 21.6 21.9 22.2 21.6 22.7 23.3 23.6 23.9 23.1 20.8 20.0 19.4 17.3 15.4 17.2 17.1 18.9 24.1 25.7 26.0 26.2 26.3 26.4 26.5 26.7 24.1 24.3 27.5 25.4 25.3 25.2 22.8 23.1 24.0 27.0 29.5 28.8 27.1 29.2 29.1 28.0 27.3 27.4 26.8 25.3 24.3 22.5 21.1 20.6 18.2 18.6 18.8 19.1 19.3 19.6 19.8 18.8 18.7 19.9
12.1 12.9 14.8 13.7 16.7 16.7 16.1 17.1 16.7 17.4 16.9 17.0 17.8 18.1 18.2 18.2 18.5 19.0 18.9 19.3 19.5 19.6 20.1 20.3 20.5 20.8 21.1 21.2 21.5 21.7 22.0 22.4 22.6 22.9 23.3 23.7 24.0 24.2 24.4 20.6 20.0 18.2 18.2 19.5 19.7 24.2 25.9 26.0 26.3 26.6 26.9 27.0 26.0 26.5 27.2 27.3 26.5 26.0 25.4 25.2 25.5 23.1 24.5 28.2 29.0 27.3 27.3 29.3 29.4 27.6 26.1 27.0 24.4 23.0 20.7 20.0 19.6 20.1 18.0 18.2 18.6 19.4 20.0 20.9 21.4 21.7 21.6 21.6
12.1 14.2 15.9 15.3 17.2 17.3 17.3 16.4 17.0 17.6 17.7 17.9 18.0 18.2 18.4 18.5 18.8 19.2 19.4 19.5 19.7 20.1 19.8 20.5 20.7 21.0 21.2 21.4 21.6 21.8 22.1 22.5 22.7 23.0 23.3 23.6 23.9 24.1 24.3 24.5 20.4 19.3 19.6 22.2 20.4 20.9 25.7 26.5 26.9 27.0 27.2 27.4 27.6 26.7 26.4 27.1 26.7 27.4 27.3 26.2 24.6 24.9 25.1 24.6 25.7 24.7 25.2 27.1 25.7 25.5 25.1 24.6 21.9 21.3 19.5 20.0 17.7 17.3 16.7 16.3 16.3 18.5 21.0 21.4 22.3 21.7 21.8 22.2
11.9 13.1 17.3 16.1 17.4 17.5 17.6 16.8 16.3 16.6 18.0 17.2 18.2 18.4 18.7 18.8 19.1 19.5 19.6 19.8 20.1 20.3 20.3 20.7 20.9 21.2 21.4 21.6 21.9 22.1 22.3 22.6 22.8 23.1 23.4 23.6 23.8 24.1 24.4 24.6 25.0 20.3 20.1 23.8 24.3 20.6 25.1 25.5 24.5 27.4 27.5 27.5 27.6 28.0 26.0 26.1 27.9 28.0 27.3 26.8 25.5 26.7 25.7 24.4 24.7 24.6 24.3 25.2 24.3 24.1 25.2 25.2 20.2 17.9 18.3 18.4 17.7 18.0 17.9 17.8 16.7 17.3 18.4 20.3 21.5 22.1 21.4 21.9
8.9 9.1 12.4 14.5 17.6 17.7 17.3 17.6 17.6 17.6 18.3 18.4 18.5 18.7 19.0 19.1 19.4 19.7 19.9 20.1 20.4 20.6 20.8 20.9 21.2 21.5 21.7 21.9 22.2 22.5 22.2 22.9 23.2 23.4 23.6 23.9 24.1 24.4 24.6 24.8 21.7 25.6 25.0 25.6 26.4 26.6 26.5 27.5 27.8 28.1 28.5 28.3 28.3 28.8 27.5 27.2 28.0 28.9 27.6 27.1 27.3 27.3 28.1 26.8 27.1 25.0 26.3 26.9 25.2 25.0 26.8 25.9 21.3 18.3 18.6 18.7 18.7 19.0 18.8 19.0 19.0 18.2 17.7 19.1 20.8 21.4 21.5 21.6
10.0 9.8 7.8 12.0 17.8 17.2 18.1 17.4 16.7 18.3 18.5 18.7 18.8 19.0 19.2 19.4 19.6 19.8 20.2 20.5 20.7 20.8 21.0 21.2 21.4 21.7 22.0 22.2 22.5 22.7 20.8 21.2 22.3 22.2 22.0 22.2 21.9 22.1 22.2 21.9 21.7 24.8 26.0 26.4 26.7 27.1 27.4 27.9 28.5 28.7 29.3 29.6 29.2 29.4 29.5 29.8 29.6 28.6 27.7 27.4 26.1 25.1 24.3 23.6 23.2 22.4 22.2 22.2 26.0 28.8 27.2 21.0 20.0 18.4 21.5 20.8 19.1 19.5 19.3 18.9 18.3 17.3 18.3 19.6 21.0 21.1 21.2 21.6